Alamogordo, NM

3:39 PM MDT on July 28, 2016 (GMT -0600)
Alamogordo-White Sands Regional

Weather History for KALM - November, 2011

Change the Weather History Date:

Saturday, November 12, 2011

  Actual Average Record
Temperature  
Mean Temperature 57 °F -  
Max Temperature 68 °F 68 °F 84 °F (1973)
Min Temperature 46 °F 37 °F 25 °F (1979)
Degree Days  
Heating Degree Days 8    
Growing Degree Days 7 (Base 50)    
Moisture  
Dew Point 21 °F    
Average Humidity 24    
Maximum Humidity 43    
Minimum Humidity 18    
Precipitation  
Precipitation 0.00 in - - ()
Sea Level Pressure  
Sea Level Pressure 29.98 in    
Wind  
Wind Speed 6 mph (South)    
Max Wind Speed 13 mph    
Max Gust Speed 18 mph    
Visibility 10 miles    
Events      
Averages and records for this station are not official NWS values.
T = Trace of Precipitation, MM = Missing Value Source: NWS Daily Summary

Daily Weather History Graph

Daily Weather History Graph

Search for Another Location

Airport or City:

Trip Planner

Search our weather history database for the weather conditions in past years. The results will help you decide how hot, cold, wet, or windy it might be!

Date:

Astronomy

Nov. 12, 2011 Rise Set
Actual Time 6:31 AM MST 5:04 PM MST
Civil Twilight 6:05 AM MST 5:30 PM MST
Nautical Twilight 5:35 AM MST 6:00 PM MST
Astronomical Twilight 5:06 AM MST 6:29 PM MST
Moon 6:28 PM MST (11/12) 8:10 AM MST (11/12)
Length of Visible Light 11h 25m
Length of Day
10h 33m
Waning Gibbous, 97% of the Moon is Illuminated
Nov 12
Waning Gibbous
Nov 18
Last Quarter
Nov 24
New
Dec 2
First Quarter
Dec 10
Full

Hourly Weather History & Observations

Time (MST) Temp. Windchill Dew Point Humidity Pressure Visibility Wind Dir Wind Speed Gust Speed Precip Events Conditions
12:15 AM 46.4 °F 43.5 °F 19.4 °F 34% 30.01 in 10.0 mi SSE 5.8 mph - N/A   Clear
12:35 AM 48.2 °F - 17.6 °F 30% 30.01 in 10.0 mi SSE 4.6 mph - N/A   Clear
12:55 AM 48.2 °F - 21.2 °F 34% 30.00 in 10.0 mi SSE 9.2 mph - N/A   Clear
1:15 AM 48.2 °F - 19.4 °F 32% 30.00 in 10.0 mi South 6.9 mph - N/A   Clear
1:35 AM 50.0 °F - 19.4 °F 30% 30.00 in 10.0 mi SSE 11.5 mph - N/A   Clear
1:55 AM 50.0 °F - 19.4 °F 30% 30.00 in 10.0 mi South 10.4 mph - N/A   Clear
3:15 AM 50.0 °F - 19.4 °F 30% 29.99 in 10.0 mi SE 9.2 mph - N/A   Clear
3:35 AM 50.0 °F - 19.4 °F 30% 29.99 in 10.0 mi SE 6.9 mph - N/A   Partly Cloudy
3:55 AM 50.0 °F - 17.6 °F 28% 29.99 in 10.0 mi South 9.2 mph - N/A   Clear
4:15 AM 50.0 °F - 19.4 °F 30% 29.99 in 10.0 mi SSE 10.4 mph - N/A   Clear
4:35 AM 50.0 °F - 17.6 °F 28% 29.99 in 10.0 mi SE 5.8 mph - N/A   Clear
5:15 AM 50.0 °F - 19.4 °F 30% 29.98 in 10.0 mi ESE 4.6 mph - N/A   Scattered Clouds
5:35 AM 50.0 °F - 17.6 °F 28% 29.98 in 10.0 mi Calm Calm - N/A   Scattered Clouds
5:55 AM 50.0 °F - 17.6 °F 28% 29.98 in 10.0 mi SSE 3.5 mph - N/A   Partly Cloudy
6:15 AM 46.4 °F 45.2 °F 24.8 °F 43% 29.98 in 10.0 mi SSE 3.5 mph - N/A   Clear
6:35 AM 48.2 °F - 19.4 °F 32% 29.98 in 10.0 mi South 3.5 mph - N/A   Scattered Clouds
6:55 AM 46.4 °F 43.5 °F 23.0 °F 40% 29.98 in 10.0 mi East 5.8 mph - N/A   Mostly Cloudy
7:15 AM 50.0 °F - 19.4 °F 30% 29.97 in 10.0 mi NNE 5.8 mph - N/A   Mostly Cloudy
7:35 AM 57.2 °F - 17.6 °F 21% 29.98 in 10.0 mi Calm Calm - N/A   Scattered Clouds
7:55 AM 55.4 °F - 19.4 °F 25% 29.99 in 10.0 mi Calm Calm - N/A   Partly Cloudy
8:15 AM 55.4 °F - 23.0 °F 29% 30.00 in 10.0 mi South 6.9 mph - N/A   Partly Cloudy
8:35 AM 53.6 °F - 23.0 °F 30% 30.00 in 10.0 mi SSE 4.6 mph - N/A   Clear
8:55 AM 57.2 °F - 21.2 °F 25% 30.00 in 10.0 mi East 6.9 mph - N/A   Clear
9:15 AM 59.0 °F - 23.0 °F 25% 30.01 in 10.0 mi SSE 4.6 mph - N/A   Clear
9:35 AM 60.8 °F - 19.4 °F 20% 30.01 in 10.0 mi South 3.5 mph - N/A   Clear
9:55 AM 62.6 °F - 19.4 °F 19% 30.01 in 10.0 mi SSE 6.9 mph - N/A   Clear
10:15 AM 62.6 °F - 19.4 °F 19% 30.01 in 10.0 mi South 3.5 mph - N/A   Clear
10:35 AM 62.6 °F - 19.4 °F 19% 30.00 in 10.0 mi Calm Calm - N/A   Clear
10:55 AM 64.4 °F - 21.2 °F 19% 30.00 in 10.0 mi SSE 4.6 mph - N/A   Clear
11:15 AM 64.4 °F - 21.2 °F 19% 29.99 in 10.0 mi SE 5.8 mph - N/A   Clear
11:35 AM 64.4 °F - 21.2 °F 19% 29.99 in 10.0 mi Calm Calm - N/A   Clear
11:55 AM 66.2 °F - 21.2 °F 18% 29.98 in 10.0 mi SSE 3.5 mph - N/A   Clear
12:15 PM 66.2 °F - 23.0 °F 19% 29.97 in 10.0 mi SW 6.9 mph - N/A   Clear
12:35 PM 66.2 °F - 23.0 °F 19% 29.96 in 10.0 mi Calm Calm - N/A   Clear
12:55 PM 68.0 °F - 23.0 °F 18% 29.95 in 10.0 mi SE 4.6 mph - N/A   Clear
1:15 PM 68.0 °F - 23.0 °F 18% 29.94 in 10.0 mi Calm Calm - N/A   Scattered Clouds
1:35 PM 68.0 °F - 23.0 °F 18% 29.94 in 10.0 mi West 4.6 mph - N/A   Mostly Cloudy
2:15 PM 68.0 °F - 23.0 °F 18% 29.93 in 10.0 mi West 6.9 mph - N/A   Mostly Cloudy
2:35 PM 68.0 °F - 23.0 °F 18% 29.93 in 10.0 mi West 6.9 mph - N/A   Partly Cloudy
2:55 PM 68.0 °F - 23.0 °F 18% 29.93 in 10.0 mi SSW 3.5 mph - N/A   Clear
3:15 PM 68.0 °F - 24.8 °F 20% 29.93 in 10.0 mi SSW 9.2 mph - N/A   Clear
3:35 PM 68.0 °F - 23.0 °F 18% 29.93 in 10.0 mi SSW 8.1 mph - N/A   Clear
4:15 PM 66.2 °F - 23.0 °F 19% 29.94 in 10.0 mi WSW 8.1 mph - N/A   Clear
4:35 PM 66.2 °F - 21.2 °F 18% 29.94 in 10.0 mi SW 11.5 mph - N/A   Clear
4:55 PM 64.4 °F - 21.2 °F 19% 29.93 in 10.0 mi WSW 9.2 mph - N/A   Clear
5:15 PM 62.6 °F - 21.2 °F 20% 29.94 in 10.0 mi WSW 8.1 mph - N/A   Clear
5:35 PM 60.8 °F - 21.2 °F 22% 29.94 in 10.0 mi SW 8.1 mph - N/A   Clear
5:55 PM 62.6 °F - 21.2 °F 20% 29.95 in 10.0 mi SW 9.2 mph - N/A   Clear
6:15 PM 59.0 °F - 23.0 °F 25% 29.95 in 10.0 mi SSE 6.9 mph - N/A   Mostly Cloudy
6:35 PM 57.2 °F - 24.8 °F 29% 29.96 in 10.0 mi SE 8.1 mph - N/A   Overcast
6:55 PM 59.0 °F - 23.0 °F 25% 29.97 in 10.0 mi SSE 6.9 mph - N/A   Overcast
7:15 PM 59.0 °F - 23.0 °F 25% 29.98 in 10.0 mi SSE 6.9 mph - N/A   Overcast
7:35 PM 60.8 °F - 21.2 °F 22% 29.98 in 10.0 mi SSW 9.2 mph - N/A   Overcast
7:55 PM 62.6 °F - 23.0 °F 22% 29.99 in 10.0 mi South 9.2 mph - N/A   Overcast
8:55 PM 64.4 °F - 23.0 °F 21% 29.99 in 10.0 mi SSW 11.5 mph 18.4 mph N/A   Clear
9:15 PM 60.8 °F - 23.0 °F 23% 30.00 in 10.0 mi SSW 9.2 mph - N/A   Partly Cloudy
9:35 PM 62.6 °F - 23.0 °F 22% 30.01 in 10.0 mi SW 9.2 mph 16.1 mph N/A   Partly Cloudy
9:55 PM 62.6 °F - 24.8 °F 24% 30.00 in 10.0 mi SW 12.7 mph 17.3 mph N/A   Clear
10:15 PM 60.8 °F - 24.8 °F 25% 29.99 in 10.0 mi SW 9.2 mph - N/A   Clear
10:35 PM 59.0 °F - 24.8 °F 27% 30.00 in 10.0 mi SSE 8.1 mph - N/A   Clear
10:55 PM 57.2 °F - 28.4 °F 33% 30.01 in 9.0 mi SSE 19.6 mph 24.2 mph N/A   Partly Cloudy
11:35 PM 57.2 °F - 35.6 °F 44% 30.00 in 8.0 mi SSE 12.7 mph - N/A   Partly Cloudy
11:55 PM 55.4 °F - 35.6 °F 47% 30.01 in 7.0 mi South 9.2 mph - N/A   Mostly Cloudy